Kosmos-1994

operational
NORAD ID: 19785 Int'l Des: 1989-009 Owner: UNKS Country: SU
LEOCIRCULARPOLAR

About Kosmos-1994

Description loading...

Live Position

Loading 3D Globe...

Upcoming Passes

Altitude History

Altitude vs Time

uPlot chart will show altitude changes over time

Two-Line Element Set

1 19785U 89009A 25278.41396807 .00000048 00000-0 20242-3 0 9993
2 19785 82.6224 154.0441 0012768 165.8510 7.7275 12.64335274691185
Epoch: Oct 5, 2025 • Age: 18 hours

Current Status

Altitude 1427.6 km
Velocity 7.14 km/s
Sub-Earth Point -35.12°S, 75.92°E
Launch Date Feb 10, 1989
Age 36.6 years
Type other

Technical Details

Classification Payload
Mass 225.00 kg
Dry Mass 225.00 kg
Total Mass 225.00 kg
Length 1.60 m
Diameter 0.80 m
Span 7.00 m
Shape Cyl + Ant
Manufacturer NPOPM
Bus Type Strela-3
Phase Status In Orbit
Owner/State UNKS/SU

Large Constellations

Loading constellations...